This is the latest recevied weather packets stored in our database for station/object N2OCK. If no packets are shown the sender has not sent any weather packets the latest 10 day(s).
| Time | Temp. | Humidity | Pressure | Rain* | Wind** | Luminosity | Snow |
|---|---|---|---|---|---|---|---|
| 1777743842 | 13.33° C | 70% | 1011.2 hPa | 0 mm | - | 131 W/m² | - |
| 1777743539 | 13.33° C | 70% | 1011.2 hPa | 0 mm | - | 122 W/m² | - |
| 1777743236 | 13.33° C | 69% | 1011.3 hPa | 0 mm | - | 124 W/m² | - |
| 1777742935 | 13.89° C | 69% | 1011.5 hPa | 0 mm | - | 104 W/m² | - |
| 1777742631 | 14.44° C | 67% | 1011.3 hPa | 0 mm | - | 138 W/m² | - |
| 1777742327 | 14.44° C | 69% | 1011.4 hPa | 0 mm | - | 183 W/m² | - |
| 1777742023 | 13.89° C | 69% | 1011.4 hPa | 0 mm | - | 270 W/m² | - |
| 1777741721 | 13.89° C | 69% | 1011.4 hPa | 0 mm | - | 236 W/m² | - |
| 1777741417 | 13.89° C | 68% | 1011.7 hPa | 0 mm | - | 222 W/m² | - |
| 1777741113 | 13.89° C | 69% | 1011.5 hPa | 0 mm | - | 250 W/m² | - |
| 1777740810 | 14.44° C | 67% | 1011.6 hPa | 0 mm | - | 178 W/m² | - |
| 1777740507 | 14.44° C | 66% | 1011.5 hPa | 0 mm | - | 203 W/m² | - |
| 1777740204 | 13.89° C | 68% | 1011.7 hPa | 0 mm | - | 286 W/m² | - |
| 1777739900 | 13.89° C | 70% | 1011.9 hPa | 0 mm | - | 225 W/m² | - |
| 1777739597 | 13.89° C | 69% | 1011.6 hPa | 0 mm | - | 252 W/m² | - |
| 1777739294 | 14.44° C | 67% | 1011.6 hPa | 0 mm | - | 303 W/m² | - |
| 1777738991 | 14.44° C | 69% | 1011.6 hPa | 0 mm | - | 315 W/m² | - |
| 1777738688 | 13.89° C | 68% | 1011.9 hPa | 0 mm | - | 315 W/m² | - |
| 1777738384 | 14.44° C | 68% | 1011.8 hPa | 0 mm | - | 360 W/m² | - |
| 1777738082 | 13.89° C | 70% | 1011.8 hPa | 0 mm | - | 382 W/m² | - |
| 1777737780 | 13.33° C | 71% | 1012 hPa | 0 mm | - | 377 W/m² | - |
| 1777737478 | 12.78° C | 73% | 1012 hPa | 0 mm | - | 308 W/m² | - |
| 1777737176 | 12.78° C | 73% | 1011.8 hPa | 0 mm | - | 303 W/m² | - |
| 1777736871 | 12.78° C | 72% | 1011.9 hPa | 0 mm | - | 198 W/m² | - |
| 1777736259 | 12.78° C | 74% | 1012.1 hPa | 0 mm | - | 199 W/m² | - |
* Rain latest hour (hover to see other rain measurements)
** Current wind speed in m/s (hover to see current wind gust speed)